Location: Sternwarte ZA, Rosenfeld-Brittheim
(48.2889°N, 8.6789°E)
Time: 20:12:51
(UTC+02:00)

ISS - Pass Details

Date: 15 July 2019
Orbit: 409 x 418 km, 51.6° (Epoch: 20 July)

Event Time Altitude Azimuth Distance (km) Brightness Sun altitude
Exits shadow 23:58:16 54° 159° (SSE) 511 -3.8 -17.2°
Maximum altitude 23:58:22 54° 151° (SSE) 509 -3.8 -17.2°
Drops below altitude 10° 00:01:38 10° 73° (ENE) 1,484 -1.0 -17.4°
Sets 00:03:44 0° 69° (ENE) 2,347 0.1 -17.6°
